Regional Weather Roundup
Issued by NWS

Home | Current Version | Previous Version | Graphics & Text | Print | Product List | Glossary On
Versions: 1 2 3 4 5 6 7 8 9 10 11 12 13 14 15 16 17 18 19 20 21 22 23 24 25 26 27 28 29 30 31 32 33 34 35 36 37 38 39 40 41 42 43 44 45 46 47 48 49 50
000
ASUS43 KOAX 021802
RWRNE

WEATHER ROUNDUP FOR NEBRASKA
NATIONAL WEATHER SERVICE OMAHA NE
100 PM CDT MON MAY 02 2016

NOTES: SATELLITE DATA IS BEING USED TO AUGMENT CLOUD COVER ABOVE
       12000 FEET.
       "FAIR" INDICATES FEW OR NO CLOUDS BELOW 12,000 FEET WITH NO
       SIGNIFICANT WEATHER AND/OR OBSTRUCTIONS TO VISIBILITY.

  * THESE STATIONS DO NOT REPORT WEATHER SUCH AS RAIN...SNOW OR FOG.

NEZ001>004-019>022-054>056-021900-
NEBRASKA PANHANDLE

CITY           SKY/WX    TMP DP  RH WIND       PRES   REMARKS
SCOTTSBLUFF    SUNNY     57  30  35 W12G20    30.17F
6HR MIN TEMP:  30; 6HR MAX TEMP:  58;

ALLIANCE       SUNNY     56  33  42 MISG      30.13F
6HR MIN TEMP:  22; 6HR MAX TEMP:  56;

CHADRON        SUNNY     60  32  34 NW12G21   30.13F
6HR MIN TEMP:  29; 6HR MAX TEMP:  60;

SIDNEY         SUNNY     52  32  46 W12       30.20F
6HR MIN TEMP:  28; 6HR MAX TEMP:  53;

$$

NEZ057>060-069>072-079>082-021900-
SOUTHWEST NEBRASKA

CITY           SKY/WX    TMP DP  RH WIND       PRES   REMARKS
NORTH PLATTE   SUNNY     59  36  42 VRB3      30.14F
6HR MIN TEMP:  27; 6HR MAX TEMP:  59;

IMPERIAL       SUNNY     57  33  40 NW13G18   30.17F
6HR MIN TEMP:  33; 6HR MAX TEMP:  57;

MCCOOK         SUNNY     59  36  42 VRB7      30.15F
6HR MIN TEMP:  33; 6HR MAX TEMP:  59;

$$

NEZ005>010-023>029-035>040-094-021900-
NORTH CENTRAL NEBRASKA

CITY           SKY/WX    TMP DP  RH WIND       PRES   REMARKS
VALENTINE      CLOUDY    61  30  31 NW7       30.11F
6HR MIN TEMP:  31; 6HR MAX TEMP:  62;

AINSWORTH      CLOUDY    58  34  41 NW6       30.11F
BROKEN BOW     SUNNY     57  35  43 VRB3      30.13F
6HR MIN TEMP:  34; 6HR MAX TEMP:  57;

ORD            SUNNY     60  36  40 VRB6      30.12F
6HR MIN TEMP:  30; 6HR MAX TEMP:  60;

$$

NEZ041-046>049-061>064-073>077-083>087-021900-
SOUTH CENTRAL NEBRASKA

CITY           SKY/WX    TMP DP  RH WIND       PRES   REMARKS
GRAND ISLAND   MOSUNNY   58  36  43 N9        30.14F
6HR MIN TEMP:  36; 6HR MAX TEMP:  58;

AURORA         MOSUNNY   57  37  46 NW7       30.14F
HASTINGS       MOSUNNY   57  37  47 NW8       30.14F
6HR MIN TEMP:  38; 6HR MAX TEMP:  58;

KEARNEY *      SUNNY     55  36  47 N7        30.15F
YORK           SUNNY     57  37  47 NW7       30.14F
$$

NEZ011>018-030>034-042>045-021900-
NORTHEAST NEBRASKA

CITY           SKY/WX    TMP DP  RH WIND       PRES   REMARKS
NORFOLK        PTSUNNY   59  35  40 NW5       30.12F
6HR MIN TEMP:  36; 6HR MAX TEMP:  60;

ALBION         SUNNY     59  35  41 CALM      30.12F
BLAIR          MOSUNNY   60  40  47 N6        30.11F
COLUMBUS *     MOSUNNY   59  36  41 N7        30.13F
FREMONT        MOSUNNY   59  36  43 CALM      30.13S
TEKAMAH        SUNNY     61  40  45 VRB6      30.11F
6HR MIN TEMP:  40; 6HR MAX TEMP:  62;

$$

NEZ050>053-065>068-078-088>093-021900-
SOUTHEAST NEBRASKA

CITY           SKY/WX    TMP DP  RH WIND       PRES   REMARKS
LINCOLN        PTSUNNY   60  38  43 N6        30.13F
6HR MIN TEMP:  48; 6HR MAX TEMP:  63;

OMAHA EPPLEY   MOSUNNY   60  42  51 NW6       30.11F
6HR MIN TEMP:  45; 6HR MAX TEMP:  63;

BEATRICE       PTSUNNY   58  40  51 N9        30.13S
FALLS CITY     CLOUDY    59  45  59 CALM      30.12S
6HR MIN TEMP:  47; 6HR MAX TEMP:  59;

$$

NEZ044-045-051>053-067-021900-
OMAHA AREA

CITY           SKY/WX    TMP DP  RH WIND       PRES   REMARKS
OMAHA EPPLEY   MOSUNNY   60  42  51 NW6       30.11F
6HR MIN TEMP:  45; 6HR MAX TEMP:  63;

BLAIR          MOSUNNY   60  40  47 N6        30.11F
FREMONT        MOSUNNY   59  36  43 CALM      30.13S
OFFUTT AFB     MOSUNNY   62  42  48 VRB3      30.11F
$$




USA.gov is the U.S. government's official web portal to all federal, state and local government web resources and services.